Other Public Products
Issued by NWS Grand Forks, ND

Home | Current Version | Previous Version | Text Only | Print | Product List | Glossary On
Versions: 1 2 3 4 5 6 7 8 9 10 11 12 13 14 15 16 17 18 19 20 21 22 23 24 25 26 27 28 29 30 31 32 33 34 35 36 37 38 39 40 41 42 43 44 45 46 47 48 49 50
000
FPUS83 KFGF 012131
OPUFGF
PRAIRIE TO PINES WEATHER ROUNDUP
NATIONAL WEATHER SERVICE EASTERN NORTH DAKOTA/GRAND FORKS ND
400 PM CDT WED JUL 01 2015

 **SATELLITE DATA USED TO AUGMENT SKY COVER AT AUTOMATED STATIONS**
 *****  WEATHER ACROSS EASTERN NORTH DAKOTA  *****

CITY           SKY/WX    TMP DP  RH WIND       PRES   REMARKS
GRAND FORKS    MOSUNNY   79  59  50 S8        29.93S
GRAND FORKS AF MOSUNNY   78  60  54 S8        29.94S
GRAND CITY NWS   N/A     81 N/A N/A SW9         N/A
BUXTON         NOT AVBL
DEVILS LAKE    SUNNY     77  55  47 SE5       29.94F
FARGO          MOSUNNY   75  60  59 S12       29.96S
WAHPETON ARPT  CLEAR     72  54  53 S9        29.98S
$$

 *****  WEATHER ACROSS CENTRAL AND WESTERN NORTH DAKOTA  *****

CITY           SKY/WX    TMP DP  RH WIND       PRES   REMARKS
JAMESTOWN      MOSUNNY   75  61  61 S6        29.95F
BISMARCK       CLOUDY    76  64  66 SE6       29.95F
MINOT          MOSUNNY   73  62  68 NW3       29.96F
MINOT AFB      MOSUNNY   75  71  86 CALM      29.96S
GARRISON         N/A     76  64  66 NW3       29.97S
WILLISTON      SUNNY     77  58  51 VRB7      29.98F HAZE
DICKINSON      MOSUNNY   74  61  63 NW5       30.00S
HETTINGER      PTSUNNY   75  61  61 CALM      30.01F
$$

 *****  OTHER OBSERVATIONS NORTHEAST NORTH DAKOTA  *****

CITY           SKY/WX    TMP DP  RH WIND       PRES   REMARKS
WALHALLA       FAIR      77  59  53 MISG      29.94S
LANGDON        FAIR      77  61  57 SW6       29.97S
CAVALIER       FAIR      77  55  47 SW3       29.94S
GRAFTON        FAIR      79  57  47 VRB3      29.94S
CANDO          FAIR      75  57  53 SE3       29.96S
FORT TOTTEN      N/A     78  58  50 S6        29.95S
ROLLA            N/A     73  63  68 S8        29.98S
RUGBY          NOT AVBL
 ***** THE ABOVE OBSERVATIONS ARE NON NWS ARE NOT QUALITY
        CONTROLLED AND MAY MIS-REPORT RAIN FOR SNOW...
$$

 *****  OTHER OBSERVATIONS SOUTHEAST NORTH DAKOTA *****

CITY           SKY/WX    TMP DP  RH WIND       PRES   REMARKS
COOPERSTOWN    NOT AVBL
VALLEY CITY    MOCLDY    75  63  64 SE8       29.96F
OAKES            N/A     73  66  78 SE9       29.95F
GWINNER        NOT AVBL
SHEYENNE NWR     N/A     76  61  59 SE12      29.95
BUFFALO        NOT AVBL
WYNDMERE       NOT AVBL
 ***** THE ABOVE OBSERVATIONS ARE NON NWS ARE NOT QUALITY
       CONTROLLED AND MAY MIS-REPORT RAIN FOR SNOW...
$$

  *****  WEATHER ACROSS NORTHERN MINNESOTA  *****

CITY           SKY/WX    TMP DP  RH WIND       PRES   REMARKS
FLAG ISLAND    SUNNY     72  59  64 SE8       29.93S
WARROAD        SUNNY     77  61  57 SW5       29.95S
ROSEAU         SUNNY     79  57  47 CALM      29.94S
HALLOCK        SUNNY     79  54  41 S6        29.92F
THF RVR FALLS  PTSUNNY   79  57  47 SW7       29.95F
HALSTAD        NOT AVBL
FOSSTON        SUNNY     79  59  50 SW8       29.97S
BAUDETTE       SUNNY     78  51  38 E3        29.95S
WASKISH        SUNNY     77  54  44 SW5       29.95S
CROOKSTON      SUNNY     79  61  53 SW8       29.95S
$$
  *****  WEATHER ACROSS CENTRAL AND WEST MINNESOTA  *****

CITY           SKY/WX    TMP DP  RH WIND       PRES   REMARKS
BEMIDJI        PTSUNNY   74  58  57 SW3       29.96S
PARK RAPIDS    PTSUNNY   77  57  50 SW10      29.98R
WADENA           N/A     75  54  46 SW8       29.99S
DETROIT LAKES  MOSUNNY   75  55  50 S9        30.00S
MOORHEAD       SUNNY     75  59  57 S8        29.97S
FERGUS FALLS   SUNNY     73  55  53 S7        29.98S
ELBOW LAKE     FAIR      72  56  57 S8        29.99S
MORRIS MN      SUNNY     73  54  49 S7        29.98S
STAPLES        MOSUNNY   75  54  46 SW6       29.99S
WHEATON        SUNNY     72  55  56 SE8       30.00R
$$
  *****  WEATHER ELSEWHERE ACROSS MINNESOTA  *****

CITY           SKY/WX    TMP DP  RH WIND       PRES   REMARKS
DULUTH         MOSUNNY   70  54  56 S5        30.00S
INTRNTL FALLS  MOSUNNY   77  49  37 W3        29.96S
ELY            PTSUNNY   72  52  49 SW3       29.99S
CLOQUET        CLOUDY    72  52  49 CALM      29.99F
BRAINERD       MOSUNNY   75  51  43 CALM      29.99F
HIBBING        PTSUNNY   74  54  49 CALM      29.98F
ALEXANDRIA     SUNNY     72  53  51 SE7       30.01F
SAINT CLOUD    SUNNY     72  49  44 VRB6      30.00F
MINNEAPOLIS    MOSUNNY   69  50  50 SE6       30.01S
$$

  *****  WEATHER ACROSS SOUTH DAKOTA  *****

CITY           SKY/WX    TMP DP  RH WIND       PRES   REMARKS
SIOUX FALLS    CLOUDY    74  64  71 E13       29.93F
BROOKINGS      CLOUDY    72  61  68 E9        29.97F
WATERTOWN      CLOUDY    69  59  70 SE7       29.97S
HURON          MOSUNNY   78  65  63 VRB5      29.91S
SISSETON         N/A     72  61  68 S10       29.97R
ABERDEEN       CLOUDY    78  63  59 SE7       29.93F
MITCHELL       PTSUNNY   78  67  68 SE6       29.92R
PIERRE         SUNNY     82  64  54 CALM      29.90F
MOBRIDGE       MOSUNNY   80  66  62 CALM      29.92F
RAPID CITY     SUNNY     84  60  44 N24G31    29.99F
$$

  *****  SOME WEATHER IN NEARBY STATES *****

CITY           SKY/WX    TMP DP  RH WIND       PRES   REMARKS
GLASGOW MT     MOSUNNY   81  58  45 W8        29.97F HAZE
GREAT FALLS MT PTSUNNY   89  46  22 N13       30.04S
CHEYENNE WY    PTSUNNY   79  52  38 SE8       30.18F
SCOTTSBLUFF NE SUNNY     94  48  20 S3        30.01F HX  90
OMAHA NE       MOSUNNY   84  68  58 E10       29.86S
DES MOINES IA  CLOUDY    74  62  66 E9        29.91F
DAVENPORT IA   PTSUNNY   74  59  59 NE9       29.94R
CHICAGO IL     CLOUDY    63  51  65 NE10      29.96F
EAU CLAIRE WI  SUNNY     73  51  46 N6        29.99F
LA CROSSE WI   PTSUNNY   69  48  47 CALM      29.99S
$$

  *****  SOME NATIONAL WEATHER *****

CITY           SKY/WX    TMP DP  RH WIND       PRES   REMARKS
LA GUARDIA NY  PTSUNNY   83  60  45 W16G23    29.75R
RALEIGH NC     PTSUNNY   85  68  56 W7        29.93S
ATLANTA GA     CLOUDY    82  68  61 W10       30.04R THUNDER
NEW ORLEANS LA LGT RAIN  79  72  79 SE5       30.08F
OKLAHOMA CITY  MOSUNNY   95  70  44 S18G26    29.88F HX 101
ALBUQUERQUE NM PTSUNNY   92  46  20 W7        30.08F
SALT LAKE CITY MOSUNNY   96  47  18 NW3       30.04F HX  92
LOS ANGELES CA CLOUDY    72  64  76 W12       29.90S
BOISE ID       SUNNY     98  44  15 NW10G18   29.97F HX  94
SEATTLE WA     SUNNY     85  55  35 N13       30.01F
$$

*** WEATHER ACROSS MANITOBA...SASKATCHEWAN AND ONTARIO ***
                ***ONTARIO***

CITY           SKY/WX    TMP DP  RH WIND       PRES   REMARKS
GERALDTON      PTSUNNY   70  43  37 W6        29.95F
THUNDER BAY    CLOUDY    64  46  52 S7        30.00R
SIOUX LOOKOUT  CLOUDY    68  59  73 VRB5      29.96F
TORONTO        MOSUNNY   73  57  56 NW20G29   29.82R
BIG TROUT LK   MOSUNNY   73  46  38 NW7       29.90F
PICKLE LAKE    PTSUNNY   72  52  49 W9        29.89F
DRYDEN         MOSUNNY   73  55  53 W12       29.95F
KENORA         PTSUNNY   75  57  53 SW10      29.95S
$$
                *** MANITOBA***

CITY           SKY/WX    TMP DP  RH WIND       PRES   REMARKS
BRANDON        PTSUNNY   75  64  69 W6        29.94S
DAUPHIN        SUNNY     77  59  53 W8        29.90S
ISLAND LAKE    MOSUNNY   75  54  46 W5        29.89S
PILOT MOUND      N/A     73  59  60 S8          N/A
THE PAS        CLOUDY    73  59  60 NE7       29.90R SMOKE
THOMPSON       PTSUNNY   75  45  33 E3        29.89F
WINNIPEG       CLOUDY    77  63  61 SW7       29.94S
LYNN LAKE      MOSUNNY   75  46  35 E5        29.90F
CHURCHILL      MOSUNNY   72  41  33 NE7       29.86F
$$
                ***SASKATCHEWAN***

CITY           SKY/WX    TMP DP  RH WIND       PRES   REMARKS
ESTEVAN        CLOUDY    73  63  68 N5        29.97F SMOKE
KINDERSLEY     PTSUNNY   70  63  78 W10       29.98F THUNDER
LLOYDMINSTER   CLOUDY    68  61  77 W14       29.99S SMOKE
PRINCE ALBERT    N/A     77  63  61 NW9       29.91S SMOKE
REGINA         CLOUDY    73  59  60 NW7       29.97F SMOKE
YORKTON        MOSUNNY   75  61  60 W6        29.93S HAZE


USA.gov is the U.S. government's official web portal to all federal, state and local government web resources and services.